| time (UTC) | temp F | wind direction | speed knots | gust knots | rain 1hr in | rain 24hr in | rain mn in | humidity % | barometer mb |
| 20260508093142 | 39 | 5 | 1.7 | 1.7 | 0.00 | 0.00 | 0.00 | 85 | 1011.4 |
| 20260508092639 | 39 | 343 | 0.0 | 0.9 | 0.00 | 0.00 | 0.00 | 86 | 1011.3 |
| 20260508092138 | 40 | 332 | 0.0 | 0.0 | 0.00 | 0.00 | 0.00 | 86 | 1011.4 |
| 20260508091635 | 40 | 351 | 0.9 | 1.7 | 0.00 | 0.00 | 0.00 | 86 | 1011.6 |
| 20260508091132 | 40 | 341 | 0.9 | 0.9 | 0.00 | 0.00 | 0.00 | 86 | 1011.5 |
| 20260508090630 | 40 | 342 | 0.9 | 0.9 | 0.00 | 0.00 | 0.00 | 86 | 1011.4 |
| 20260508090127 | 40 | 320 | 0.0 | 0.0 | 0.00 | 0.00 | 0.00 | 86 | 1011.5 |
| 20260508085622 | 40 | 335 | 0.0 | 0.9 | 0.00 | 0.00 | 0.00 | 86 | 1011.4 |
| 20260508085120 | 40 | 330 | 0.9 | 0.9 | 0.00 | 0.00 | 0.00 | 85 | 1011.5 |
| 20260508084616 | 41 | 343 | 0.0 | 0.9 | 0.00 | 0.00 | 0.00 | 83 | 1011.5 |
| 20260508084114 | 42 | 337 | 0.9 | 0.9 | 0.00 | 0.00 | 0.00 | 81 | 1011.5 |
| 20260508083611 | 42 | 333 | 0.0 | 0.0 | 0.00 | 0.00 | 0.00 | 79 | 1011.6 |
| 20260508083108 | 43 | 336 | 0.0 | 0.9 | 0.00 | 0.00 | 0.00 | 76 | 1011.6 |
| 20260508082603 | 43 | 342 | 0.0 | 0.0 | 0.00 | 0.00 | 0.00 | 75 | 1011.6 |
| 20260508082101 | 42 | 300 | 0.9 | 0.9 | 0.00 | 0.00 | 0.00 | 79 | 1011.7 |
| 20260508081558 | 41 | 309 | 0.9 | 0.9 | 0.00 | 0.00 | 0.00 | 83 | 1011.6 |
| 20260508081054 | 41 | 333 | 0.0 | 0.9 | 0.00 | 0.00 | 0.00 | 83 | 1011.8 |
| 20260508080552 | 41 | 340 | 0.0 | 0.0 | 0.00 | 0.00 | 0.00 | 82 | 1011.7 |
| 20260508080049 | 41 | 333 | 0.9 | 0.9 | 0.00 | 0.00 | 0.00 | 82 | 1011.8 |
| 20260508075545 | 42 | 335 | 0.0 | 0.0 | 0.00 | 0.00 | 0.00 | 81 | 1011.7 |
| 20260508075043 | 42 | 335 | 0.0 | 0.0 | 0.00 | 0.00 | 0.00 | 81 | 1011.8 |
| 20260508074541 | 41 | 310 | 0.9 | 0.9 | 0.00 | 0.00 | 0.00 | 83 | 1012.1 |
| 20260508074037 | 41 | 336 | 0.0 | 0.0 | 0.00 | 0.00 | 0.00 | 84 | 1012.0 |
| 20260508073534 | 41 | 336 | 0.9 | 0.9 | 0.00 | 0.00 | 0.00 | 84 | 1012.2 |
| 20260508073032 | 42 | 340 | 0.9 | 0.9 | 0.00 | 0.00 | 0.00 | 84 | 1012.1 |
| 20260508072527 | 42 | 326 | 0.9 | 0.9 | 0.00 | 0.00 | 0.00 | 83 | 1012.2 |
| 20260508072025 | 43 | 330 | 0.0 | 0.0 | 0.00 | 0.00 | 0.00 | 81 | 1012.4 |
| 20260508071523 | 43 | 343 | 0.0 | 0.9 | 0.00 | 0.00 | 0.00 | 80 | 1012.2 |
| 20260508071020 | 43 | 337 | 0.9 | 0.9 | 0.00 | 0.00 | 0.00 | 80 | 1012.4 |
| 20260508070518 | 43 | 331 | 0.0 | 0.0 | 0.00 | 0.00 | 0.00 | 81 | 1012.4 |
| 20260508070016 | 43 | 337 | 0.0 | 0.0 | 0.00 | 0.00 | 0.00 | 80 | 1012.3 |
| 20260508065513 | 43 | 336 | 0.0 | 0.0 | 0.00 | 0.00 | 0.00 | 80 | 1012.5 |
| 20260508065012 | 43 | 336 | 0.0 | 0.0 | 0.00 | 0.00 | 0.00 | 81 | 1012.7 |
| 20260508064509 | 43 | 338 | 0.0 | 0.0 | 0.00 | 0.00 | 0.00 | 80 | 1012.6 |
| 20260508064006 | 42 | 330 | 0.0 | 0.0 | 0.00 | 0.00 | 0.00 | 81 | 1012.7 |
| 20260508063503 | 42 | 330 | 0.0 | 0.0 | 0.00 | 0.00 | 0.00 | 80 | 1012.6 |
| 20260508063001 | 43 | 322 | 0.9 | 0.9 | 0.00 | 0.00 | 0.00 | 80 | 1012.7 |
| 20260508062459 | 43 | 333 | 1.7 | 1.7 | 0.00 | 0.00 | 0.00 | 80 | 1012.7 |
| 20260508061955 | 43 | 337 | 0.9 | 0.9 | 0.00 | 0.00 | 0.00 | 79 | 1012.7 |
| 20260508061453 | 43 | 335 | 0.0 | 0.0 | 0.00 | 0.00 | 0.00 | 79 | 1012.9 |
| 20260508060949 | 43 | 338 | 0.9 | 0.9 | 0.00 | 0.00 | 0.00 | 78 | 1013.0 |
| 20260508060447 | 43 | 328 | 0.0 | 0.0 | 0.00 | 0.00 | 0.00 | 78 | 1012.8 |
| 20260508055943 | 44 | 349 | 0.9 | 0.9 | 0.00 | 0.00 | 0.00 | 78 | 1012.9 |
| 20260508055440 | 44 | 342 | 0.0 | 0.0 | 0.00 | 0.00 | 0.00 | 79 | 1013.0 |
| 20260508054936 | 44 | 337 | 0.0 | 0.0 | 0.00 | 0.00 | 0.00 | 80 | 1012.9 |
| 20260508054433 | 43 | 335 | 0.0 | 0.0 | 0.00 | 0.00 | 0.00 | 81 | 1012.9 |
| 20260508053930 | 43 | 327 | 0.9 | 0.9 | 0.00 | 0.00 | 0.00 | 80 | 1012.9 |
| 20260508053427 | 43 | 332 | 0.0 | 0.0 | 0.00 | 0.00 | 0.00 | 80 | 1012.8 |
| 20260508052925 | 43 | 335 | 0.0 | 0.0 | 0.00 | 0.00 | 0.00 | 80 | 1012.7 |
| 20260508052422 | 43 | 353 | 0.9 | 0.9 | 0.00 | 0.00 | 0.00 | 79 | 1012.9 |
| 20260508051918 | 43 | 331 | 2.6 | 2.6 | 0.00 | 0.00 | 0.00 | 78 | 1012.8 |
| 20260508051414 | 44 | 327 | 0.9 | 0.9 | 0.00 | 0.00 | 0.00 | 76 | 1012.7 |
| 20260508050910 | 45 | 338 | 0.9 | 0.9 | 0.00 | 0.00 | 0.00 | 75 | 1012.8 |
| 20260508050407 | 46 | 331 | 0.0 | 0.0 | 0.00 | 0.00 | 0.00 | 74 | 1012.8 |
| 20260508045903 | 46 | 344 | 0.0 | 0.0 | 0.00 | 0.00 | 0.00 | 74 | 1012.9 |
| 20260508045401 | 46 | 332 | 0.0 | 0.0 | 0.00 | 0.00 | 0.00 | 72 | 1012.8 |
| 20260508044858 | 46 | 316 | 0.9 | 0.9 | 0.00 | 0.00 | 0.00 | 72 | 1012.7 |
| 20260508044355 | 46 | 332 | 0.0 | 0.9 | 0.00 | 0.00 | 0.00 | 71 | 1012.8 |
| 20260508043850 | 46 | 326 | 0.0 | 0.0 | 0.00 | 0.00 | 0.00 | 71 | 1012.7 |
| 20260508043348 | 46 | 319 | 0.0 | 0.0 | 0.00 | 0.00 | 0.00 | 70 | 1012.8 |
| 20260508042844 | 45 | 307 | 0.9 | 0.9 | 0.00 | 0.00 | 0.00 | 72 | 1012.8 |
| 20260508042342 | 45 | 320 | 0.0 | 0.0 | 0.00 | 0.00 | 0.00 | 74 | 1012.5 |
| 20260508041839 | 45 | 331 | 0.0 | 0.9 | 0.00 | 0.00 | 0.00 | 75 | 1012.8 |
| 20260508041335 | 46 | 332 | 0.9 | 1.7 | 0.00 | 0.00 | 0.00 | 74 | 1012.5 |
| 20260508040832 | 46 | 334 | 0.0 | 0.0 | 0.00 | 0.00 | 0.00 | 74 | 1012.5 |
| 20260508040329 | 46 | 337 | 0.9 | 1.7 | 0.00 | 0.00 | 0.00 | 75 | 1012.5 |
| 20260508035826 | 46 | 331 | 0.0 | 0.9 | 0.00 | 0.00 | 0.00 | 74 | 1012.5 |
| 20260508035324 | 47 | 350 | 0.9 | 0.9 | 0.00 | 0.00 | 0.00 | 73 | 1012.5 |
| 20260508034820 | 48 | 340 | 0.9 | 0.9 | 0.00 | 0.00 | 0.00 | 71 | 1012.3 |
| 20260508034318 | 48 | 346 | 0.9 | 0.9 | 0.00 | 0.00 | 0.00 | 70 | 1012.4 |
| 20260508033814 | 48 | 323 | 0.0 | 0.0 | 0.00 | 0.00 | 0.00 | 69 | 1012.4 |
| 20260508033313 | 48 | 330 | 0.0 | 0.0 | 0.00 | 0.00 | 0.00 | 70 | 1012.1 |
| 20260508032810 | 48 | 330 | 0.9 | 0.9 | 0.00 | 0.00 | 0.00 | 71 | 1011.9 |
| 20260508032307 | 48 | 340 | 0.0 | 0.0 | 0.00 | 0.00 | 0.00 | 70 | 1011.9 |
| 20260508031803 | 48 | 335 | 0.0 | 0.0 | 0.00 | 0.00 | 0.00 | 70 | 1012.0 |
| 20260508031300 | 48 | 330 | 0.0 | 0.0 | 0.00 | 0.00 | 0.00 | 69 | 1012.0 |
| 20260508030756 | 49 | 331 | 0.9 | 0.9 | 0.00 | 0.00 | 0.00 | 68 | 1011.8 |
| 20260508030254 | 49 | 330 | 0.0 | 0.9 | 0.00 | 0.00 | 0.00 | 68 | 1012.0 |
| 20260508025750 | 50 | 336 | 0.0 | 0.0 | 0.00 | 0.00 | 0.00 | 66 | 1011.8 |
| 20260508025248 | 51 | 333 | 0.0 | 0.0 | 0.00 | 0.00 | 0.00 | 65 | 1011.7 |
| 20260508024744 | 51 | 336 | 0.0 | 0.0 | 0.00 | 0.00 | 0.00 | 64 | 1011.9 |
| 20260508024240 | 51 | 339 | 0.9 | 0.9 | 0.00 | 0.00 | 0.00 | 63 | 1011.7 |
| 20260508023738 | 52 | 336 | 0.0 | 0.0 | 0.00 | 0.00 | 0.00 | 61 | 1011.5 |
| 20260508023235 | 52 | 336 | 0.0 | 0.0 | 0.00 | 0.00 | 0.00 | 59 | 1011.4 |
| 20260508022731 | 53 | 336 | 0.0 | 0.0 | 0.00 | 0.00 | 0.00 | 57 | 1011.5 |
| 20260508022227 | 53 | 336 | 0.0 | 0.0 | 0.00 | 0.00 | 0.00 | 56 | 1011.3 |
| 20260508021724 | 54 | 335 | 0.0 | 0.0 | 0.00 | 0.00 | 0.00 | 54 | 1011.2 |
| 20260508021219 | 55 | 335 | 0.0 | 0.0 | 0.00 | 0.00 | 0.00 | 52 | 1011.1 |
| 20260508020717 | 55 | 335 | 0.0 | 0.0 | 0.00 | 0.00 | 0.00 | 50 | 1011.2 |
| 20260508020214 | 55 | 336 | 0.0 | 0.0 | 0.00 | 0.00 | 0.00 | 48 | 1011.1 |
| 20260508015711 | 56 | 335 | 0.0 | 0.0 | 0.00 | 0.00 | 0.00 | 46 | 1011.0 |
| 20260508015208 | 56 | 335 | 0.0 | 0.0 | 0.00 | 0.00 | 0.00 | 44 | 1011.0 |
| 20260508014705 | 57 | 335 | 0.0 | 0.0 | 0.00 | 0.00 | 0.00 | 43 | 1011.0 |
| 20260508014201 | 58 | 335 | 0.0 | 0.0 | 0.00 | 0.00 | 0.00 | 41 | 1010.9 |
| 20260508013657 | 59 | 335 | 0.0 | 0.0 | 0.00 | 0.00 | 0.00 | 39 | 1011.0 |
| 20260508013154 | 59 | 334 | 0.0 | 0.0 | 0.00 | 0.00 | 0.00 | 38 | 1010.8 |
| 20260508012652 | 59 | 318 | 0.9 | 0.9 | 0.00 | 0.00 | 0.00 | 37 | 1011.0 |
| 20260508012148 | 60 | 334 | 0.0 | 0.0 | 0.00 | 0.00 | 0.00 | 38 | 1010.8 |
| 20260508011647 | 60 | 331 | 0.9 | 0.9 | 0.00 | 0.00 | 0.00 | 37 | 1010.8 |
| 20260508011144 | 61 | 322 | 0.9 | 1.7 | 0.00 | 0.00 | 0.00 | 37 | 1010.6 |
| 20260508010641 | 61 | 311 | 0.9 | 0.9 | 0.00 | 0.00 | 0.00 | 36 | 1010.6 |
| 20260508010139 | 62 | 339 | 1.7 | 1.7 | 0.00 | 0.00 | 0.00 | 36 | 1010.6 |
| 20260508005636 | 62 | 327 | 1.7 | 1.7 | 0.00 | 0.00 | 0.00 | 35 | 1010.6 |
| 20260508005132 | 63 | 319 | 1.7 | 2.6 | 0.00 | 0.00 | 0.00 | 35 | 1010.6 |
| 20260508004627 | 63 | 305 | 1.7 | 1.7 | 0.00 | 0.00 | 0.00 | 35 | 1010.5 |
| 20260508004125 | 63 | 281 | 3.5 | 3.5 | 0.00 | 0.00 | 0.00 | 35 | 1010.4 |
| 20260508003621 | 64 | 312 | 4.3 | 5.2 | 0.00 | 0.00 | 0.00 | 34 | 1010.4 |
| 20260508003119 | 64 | 308 | 0.9 | 0.9 | 0.00 | 0.00 | 0.00 | 35 | 1010.4 |
| 20260508002615 | 64 | 315 | 1.7 | 2.6 | 0.00 | 0.00 | 0.00 | 34 | 1010.3 |
| 20260508002113 | 64 | 306 | 0.9 | 1.7 | 0.00 | 0.00 | 0.00 | 34 | 1010.3 |
| 20260508001608 | 64 | 290 | 0.9 | 1.7 | 0.00 | 0.00 | 0.00 | 34 | 1010.2 |
| 20260508001104 | 65 | 310 | 2.6 | 3.5 | 0.00 | 0.00 | 0.00 | 34 | 1010.3 |
| 20260508000600 | 65 | 327 | 3.5 | 3.5 | 0.00 | 0.00 | 0.00 | 35 | 1010.4 |
| 20260508000057 | 65 | 294 | 1.7 | 1.7 | 0.00 | 0.00 | 0.00 | 34 | 1010.1 |
| 20260507235554 | 65 | 252 | 3.5 | 6.1 | 0.00 | 0.00 | 0.00 | 34 | 1010.2 |
| 20260507235052 | 65 | 267 | 2.6 | 2.6 | 0.00 | 0.00 | 0.00 | 34 | 1010.2 |
| 20260507234548 | 65 | 277 | 2.6 | 3.5 | 0.00 | 0.00 | 0.00 | 33 | 1010.2 |
| 20260507234044 | 65 | 264 | 5.2 | 6.1 | 0.00 | 0.00 | 0.00 | 34 | 1010.2 |
| 20260507233541 | 66 | 257 | 7.0 | 9.6 | 0.00 | 0.00 | 0.00 | 33 | 1010.1 |
| 20260507233040 | 66 | 288 | 4.3 | 7.0 | 0.00 | 0.00 | 0.00 | 34 | 1010.3 |
| 20260507232536 | 65 | 256 | 6.1 | 7.8 | 0.00 | 0.00 | 0.00 | 34 | 1010.1 |
| 20260507232033 | 65 | 323 | 6.1 | 8.7 | 0.00 | 0.00 | 0.00 | 34 | 1010.2 |
| 20260507231529 | 66 | 269 | 5.2 | 7.0 | 0.00 | 0.00 | 0.00 | 33 | 1010.2 |
| 20260507231027 | 66 | 332 | 3.5 | 6.1 | 0.00 | 0.00 | 0.00 | 32 | 1010.4 |
| 20260507230524 | 66 | 288 | 6.1 | 7.0 | 0.00 | 0.00 | 0.00 | 33 | 1010.3 |
| 20260507230020 | 66 | 239 | 3.5 | 6.1 | 0.00 | 0.00 | 0.00 | 31 | 1010.4 |
| 20260507225515 | 66 | 221 | 5.2 | 7.0 | 0.00 | 0.00 | 0.00 | 32 | 1010.3 |
| 20260507225012 | 66 | 271 | 4.3 | 6.1 | 0.00 | 0.00 | 0.00 | 31 | 1010.3 |
| 20260507224508 | 67 | 304 | 2.6 | 2.6 | 0.00 | 0.00 | 0.00 | 31 | 1010.5 |
| 20260507224004 | 67 | 330 | 0.9 | 1.7 | 0.00 | 0.00 | 0.00 | 31 | 1010.4 |
| 20260507223500 | 66 | 306 | 5.2 | 7.0 | 0.00 | 0.00 | 0.00 | 32 | 1010.5 |
| 20260507222958 | 66 | 284 | 7.8 | 8.7 | 0.00 | 0.00 | 0.00 | 33 | 1010.2 |
| 20260507222454 | 67 | 294 | 7.8 | 9.6 | 0.00 | 0.00 | 0.00 | 31 | 1010.4 |
| 20260507221951 | 67 | 1 | 5.2 | 6.1 | 0.00 | 0.00 | 0.00 | 32 | 1010.4 |
| 20260507221448 | 67 | 341 | 7.0 | 8.7 | 0.00 | 0.00 | 0.00 | 32 | 1010.3 |
| 20260507220944 | 66 | 327 | 3.5 | 5.2 | 0.00 | 0.00 | 0.00 | 30 | 1010.4 |
| 20260507220442 | 66 | 312 | 5.2 | 7.0 | 0.00 | 0.00 | 0.00 | 31 | 1010.3 |
| 20260507215938 | 65 | 349 | 4.3 | 6.1 | 0.00 | 0.00 | 0.00 | 33 | 1010.4 |
| 20260507215435 | 64 | 305 | 5.2 | 7.8 | 0.00 | 0.00 | 0.00 | 34 | 1010.4 |
| 20260507214932 | 64 | 257 | 5.2 | 7.8 | 0.00 | 0.00 | 0.00 | 34 | 1010.5 |
| 20260507214430 | 66 | 311 | 10.4 | 14.8 | 0.00 | 0.00 | 0.00 | 34 | 1010.3 |
| 20260507213925 | 66 | 275 | 4.3 | 5.2 | 0.00 | 0.00 | 0.00 | 33 | 1010.4 |
| 20260507213422 | 65 | 269 | 7.0 | 9.6 | 0.00 | 0.00 | 0.00 | 34 | 1010.4 |
| 20260507212919 | 66 | 27 | 5.2 | 8.7 | 0.00 | 0.00 | 0.00 | 33 | 1010.4 |
| 20260507212415 | 65 | 333 | 4.3 | 7.0 | 0.00 | 0.00 | 0.00 | 31 | 1010.6 |
| 20260507211912 | 64 | 294 | 7.8 | 9.6 | 0.00 | 0.00 | 0.00 | 32 | 1010.5 |
| 20260507211408 | 63 | 281 | 7.8 | 11.3 | 0.00 | 0.00 | 0.00 | 34 | 1010.5 |
| 20260507210905 | 63 | 294 | 7.0 | 8.7 | 0.00 | 0.00 | 0.00 | 36 | 1010.5 |
| 20260507210402 | 64 | 242 | 7.8 | 9.6 | 0.00 | 0.00 | 0.00 | 36 | 1010.5 |
| 20260507205858 | 64 | 312 | 2.6 | 5.2 | 0.00 | 0.00 | 0.00 | 39 | 1010.5 |
| 20260507205355 | 63 | 298 | 3.5 | 3.5 | 0.00 | 0.00 | 0.00 | 39 | 1010.5 |
| 20260507204852 | 63 | 260 | 5.2 | 6.1 | 0.00 | 0.00 | 0.00 | 39 | 1010.8 |
| 20260507204349 | 63 | 332 | 1.7 | 3.5 | 0.00 | 0.00 | 0.00 | 39 | 1010.7 |
| 20260507203846 | 63 | 251 | 5.2 | 6.1 | 0.00 | 0.00 | 0.00 | 38 | 1010.8 |
| 20260507203339 | 64 | 266 | 7.8 | 11.3 | 0.00 | 0.00 | 0.00 | 36 | 1010.7 |
| 20260507202835 | 66 | 264 | 7.8 | 11.3 | 0.00 | 0.00 | 0.00 | 35 | 1010.8 |
| 20260507202331 | 66 | 198 | 4.3 | 6.1 | 0.00 | 0.00 | 0.00 | 35 | 1010.7 |
| 20260507201827 | 64 | 222 | 8.7 | 9.6 | 0.00 | 0.00 | 0.00 | 35 | 1010.8 |
| 20260507201323 | 65 | 304 | 11.3 | 13.9 | 0.00 | 0.00 | 0.00 | 36 | 1010.9 |
| 20260507200819 | 64 | 291 | 9.6 | 11.3 | 0.00 | 0.00 | 0.00 | 37 | 1010.7 |
| 20260507200315 | 64 | 167 | 5.2 | 8.7 | 0.00 | 0.00 | 0.00 | 37 | 1010.9 |
| 20260507195811 | 65 | 243 | 12.2 | 16.5 | 0.00 | 0.00 | 0.00 | 37 | 1010.9 |
| 20260507195309 | 66 | 255 | 7.0 | 8.7 | 0.00 | 0.00 | 0.00 | 36 | 1010.9 |
| 20260507194806 | 64 | 303 | 3.5 | 7.8 | 0.00 | 0.00 | 0.00 | 36 | 1010.9 |
| 20260507194302 | 64 | 242 | 7.0 | 9.6 | 0.00 | 0.00 | 0.00 | 37 | 1011.1 |
| 20260507193759 | 63 | 288 | 9.6 | 12.2 | 0.00 | 0.00 | 0.00 | 38 | 1011.3 |
| 20260507193256 | 63 | 239 | 7.8 | 8.7 | 0.00 | 0.00 | 0.00 | 39 | 1011.1 |
| 20260507192752 | 62 | 85 | 4.3 | 7.0 | 0.00 | 0.00 | 0.00 | 39 | 1011.5 |
| 20260507192249 | 64 | 263 | 8.7 | 9.6 | 0.00 | 0.00 | 0.00 | 37 | 1011.3 |
| 20260507191745 | 62 | 267 | 7.8 | 8.7 | 0.00 | 0.00 | 0.00 | 39 | 1011.2 |
| 20260507191242 | 63 | 344 | 5.2 | 6.1 | 0.00 | 0.00 | 0.00 | 39 | 1011.2 |
| 20260507190738 | 62 | 277 | 9.6 | 13.0 | 0.00 | 0.00 | 0.00 | 41 | 1011.1 |
| 20260507190237 | 62 | 263 | 5.2 | 8.7 | 0.00 | 0.00 | 0.00 | 38 | 1011.5 |
| 20260507185735 | 63 | 278 | 3.5 | 3.5 | 0.00 | 0.00 | 0.00 | 33 | 1011.3 |
| 20260507185232 | 63 | 332 | 2.6 | 3.5 | 0.00 | 0.00 | 0.00 | 32 | 1011.3 |
| 20260507184729 | 63 | 196 | 9.6 | 11.3 | 0.00 | 0.00 | 0.00 | 32 | 1011.4 |
| 20260507184227 | 63 | 207 | 5.2 | 7.8 | 0.00 | 0.00 | 0.00 | 34 | 1011.3 |
| 20260507183723 | 62 | 326 | 3.5 | 5.2 | 0.00 | 0.00 | 0.00 | 36 | 1011.4 |
| 20260507183220 | 63 | 306 | 5.2 | 7.0 | 0.00 | 0.00 | 0.00 | 35 | 1011.3 |
| 20260507182718 | 62 | 10 | 3.5 | 5.2 | 0.00 | 0.00 | 0.00 | 36 | 1011.5 |
| 20260507182213 | 62 | 326 | 7.0 | 7.8 | 0.00 | 0.00 | 0.00 | 35 | 1011.4 |
| 20260507181710 | 62 | 305 | 5.2 | 6.1 | 0.00 | 0.00 | 0.00 | 37 | 1011.4 |
| 20260507181206 | 62 | 250 | 4.3 | 6.1 | 0.00 | 0.00 | 0.00 | 38 | 1011.6 |
| 20260507180702 | 62 | 323 | 7.8 | 12.2 | 0.00 | 0.00 | 0.00 | 37 | 1011.7 |
| 20260507180200 | 60 | 276 | 6.1 | 7.0 | 0.00 | 0.00 | 0.00 | 39 | 1011.7 |
| 20260507175655 | 60 | 241 | 10.4 | 13.0 | 0.00 | 0.00 | 0.00 | 40 | 1011.7 |
| 20260507175153 | 60 | 291 | 6.1 | 8.7 | 0.00 | 0.00 | 0.00 | 42 | 1012.0 |
| 20260507174650 | 61 | 281 | 8.7 | 11.3 | 0.00 | 0.00 | 0.00 | 42 | 1012.2 |
| 20260507174148 | 61 | 284 | 7.8 | 11.3 | 0.00 | 0.00 | 0.00 | 41 | 1012.0 |
| 20260507173644 | 61 | 240 | 4.3 | 5.2 | 0.00 | 0.00 | 0.00 | 41 | 1012.1 |
| 20260507173141 | 60 | 260 | 8.7 | 11.3 | 0.00 | 0.00 | 0.00 | 44 | 1012.3 |
| 20260507172637 | 60 | 250 | 8.7 | 11.3 | 0.00 | 0.00 | 0.00 | 45 | 1012.2 |
| 20260507172135 | 60 | 269 | 5.2 | 7.0 | 0.00 | 0.00 | 0.00 | 45 | 1012.1 |
| 20260507171635 | 61 | 239 | 16.5 | 20.9 | 0.00 | 0.00 | 0.00 | 45 | 1012.2 |
| 20260507171133 | 59 | 285 | 11.3 | 15.6 | 0.00 | 0.00 | 0.00 | 47 | 1012.5 |
| 20260507170630 | 60 | 253 | 7.0 | 8.7 | 0.00 | 0.00 | 0.00 | 43 | 1012.4 |
| 20260507170127 | 60 | 252 | 10.4 | 13.0 | 0.00 | 0.00 | 0.00 | 43 | 1012.2 |
| 20260507165622 | 61 | 278 | 7.8 | 9.6 | 0.00 | 0.00 | 0.00 | 44 | 1012.3 |
| 20260507165119 | 59 | 251 | 9.6 | 13.0 | 0.00 | 0.00 | 0.00 | 45 | 1012.5 |
| 20260507164614 | 60 | 299 | 6.1 | 7.0 | 0.00 | 0.00 | 0.00 | 44 | 1012.6 |
| 20260507164111 | 59 | 258 | 5.2 | 9.6 | 0.00 | 0.00 | 0.00 | 45 | 1012.8 |
| 20260507163609 | 58 | 250 | 4.3 | 7.0 | 0.00 | 0.00 | 0.00 | 47 | 1012.8 |
| 20260507163107 | 58 | 242 | 4.3 | 6.1 | 0.00 | 0.00 | 0.00 | 47 | 1012.8 |
| 20260507162607 | 59 | 314 | 5.2 | 7.0 | 0.00 | 0.00 | 0.00 | 46 | 1013.0 |
| 20260507162105 | 57 | 271 | 4.3 | 5.2 | 0.00 | 0.00 | 0.00 | 49 | 1013.0 |
| 20260507161600 | 58 | 277 | 7.8 | 9.6 | 0.00 | 0.00 | 0.00 | 49 | 1013.1 |
| 20260507161057 | 58 | 269 | 5.2 | 7.0 | 0.00 | 0.00 | 0.00 | 48 | 1013.1 |
| 20260507160554 | 58 | 288 | 5.2 | 7.8 | 0.00 | 0.00 | 0.00 | 48 | 1013.2 |
| 20260507160050 | 57 | 270 | 3.5 | 5.2 | 0.00 | 0.00 | 0.00 | 47 | 1013.3 |
| 20260507155545 | 57 | 344 | 5.2 | 7.0 | 0.00 | 0.00 | 0.00 | 48 | 1013.2 |
| 20260507155043 | 57 | 269 | 5.2 | 8.7 | 0.00 | 0.00 | 0.00 | 49 | 1013.3 |
| 20260507154540 | 57 | 261 | 7.0 | 9.6 | 0.00 | 0.00 | 0.00 | 47 | 1013.1 |
| 20260507154037 | 56 | 222 | 7.0 | 11.3 | 0.00 | 0.00 | 0.00 | 48 | 1013.2 |
| 20260507153534 | 56 | 276 | 1.7 | 2.6 | 0.00 | 0.00 | 0.00 | 47 | 1013.1 |
| 20260507153030 | 57 | 325 | 1.7 | 1.7 | 0.00 | 0.00 | 0.00 | 47 | 1013.5 |
| 20260507152525 | 56 | 287 | 7.0 | 9.6 | 0.00 | 0.00 | 0.00 | 46 | 1013.3 |
| 20260507152022 | 56 | 219 | 7.8 | 8.7 | 0.00 | 0.00 | 0.00 | 46 | 1013.4 |
| 20260507151518 | 56 | 268 | 3.5 | 7.0 | 0.00 | 0.00 | 0.00 | 45 | 1013.4 |
| 20260507151015 | 55 | 281 | 7.8 | 9.6 | 0.00 | 0.00 | 0.00 | 45 | 1013.6 |
| 20260507150512 | 55 | 325 | 5.2 | 7.0 | 0.00 | 0.00 | 0.00 | 45 | 1013.7 |
| 20260507150009 | 55 | 223 | 5.2 | 7.8 | 0.00 | 0.00 | 0.00 | 45 | 1013.6 |
| 20260507145504 | 54 | 295 | 4.3 | 7.0 | 0.00 | 0.00 | 0.00 | 45 | 1013.7 |
| 20260507145002 | 53 | 208 | 5.2 | 7.0 | 0.00 | 0.00 | 0.00 | 45 | 1013.9 |
| 20260507144458 | 53 | 200 | 5.2 | 6.1 | 0.00 | 0.00 | 0.00 | 45 | 1013.7 |
| 20260507143955 | 52 | 265 | 6.1 | 7.8 | 0.00 | 0.00 | 0.00 | 47 | 1014.4 |
| 20260507143453 | 53 | 308 | 0.9 | 1.7 | 0.00 | 0.00 | 0.00 | 49 | 1014.1 |
| 20260507142949 | 53 | 289 | 2.6 | 2.6 | 0.00 | 0.00 | 0.00 | 48 | 1014.2 |
| 20260507142445 | 52 | 271 | 2.6 | 2.6 | 0.00 | 0.00 | 0.00 | 49 | 1014.0 |
| 20260507141943 | 52 | 294 | 0.0 | 0.9 | 0.00 | 0.00 | 0.00 | 49 | 1014.3 |
| 20260507141438 | 51 | 284 | 1.7 | 1.7 | 0.00 | 0.00 | 0.00 | 51 | 1014.6 |
| 20260507140935 | 51 | 192 | 3.5 | 5.2 | 0.00 | 0.00 | 0.00 | 50 | 1014.5 |
| 20260507140432 | 52 | 248 | 2.6 | 2.6 | 0.00 | 0.00 | 0.00 | 50 | 1014.4 |
| 20260507135930 | 49 | 270 | 1.7 | 2.6 | 0.00 | 0.00 | 0.00 | 53 | 1014.7 |
| 20260507135426 | 49 | 297 | 1.7 | 1.7 | 0.00 | 0.00 | 0.00 | 55 | 1014.6 |
| 20260507134924 | 49 | 138 | 1.7 | 2.6 | 0.00 | 0.00 | 0.00 | 56 | 1014.7 |
| 20260507134420 | 48 | 161 | 1.7 | 1.7 | 0.00 | 0.00 | 0.00 | 59 | 1014.6 |
| 20260507133916 | 47 | 317 | 0.9 | 0.9 | 0.00 | 0.00 | 0.00 | 59 | 1014.8 |
| 20260507133412 | 44 | 0 | 0.9 | 0.9 | 0.00 | 0.00 | 0.00 | 64 | 1014.7 |
| 20260507132911 | 43 | 329 | 0.9 | 0.9 | 0.00 | 0.00 | 0.00 | 66 | 1014.8 |
| 20260507132407 | 43 | 49 | 2.6 | 2.6 | 0.00 | 0.00 | 0.00 | 67 | 1014.8 |
| 20260507131905 | 42 | 7 | 0.9 | 0.9 | 0.00 | 0.00 | 0.00 | 69 | 1015.0 |
| 20260507131400 | 41 | 112 | 1.7 | 1.7 | 0.00 | 0.00 | 0.00 | 71 | 1014.9 |
| 20260507130857 | 40 | 90 | 1.7 | 2.6 | 0.00 | 0.00 | 0.00 | 73 | 1014.9 |
| 20260507130354 | 39 | 31 | 0.9 | 0.9 | 0.00 | 0.00 | 0.00 | 73 | 1015.1 |
| 20260507125853 | 38 | 49 | 1.7 | 1.7 | 0.00 | 0.00 | 0.00 | 76 | 1015.2 |
| 20260507125350 | 38 | 85 | 2.6 | 2.6 | 0.00 | 0.00 | 0.00 | 77 | 1015.3 |
| 20260507124848 | 37 | 336 | 0.0 | 0.9 | 0.00 | 0.00 | 0.00 | 78 | 1015.3 |
| 20260507124344 | 37 | 39 | 0.9 | 1.7 | 0.00 | 0.00 | 0.00 | 79 | 1015.5 |
| 20260507123843 | 37 | 39 | 1.7 | 1.7 | 0.00 | 0.00 | 0.00 | 80 | 1015.3 |
| 20260507123339 | 36 | 1 | 0.9 | 1.7 | 0.00 | 0.00 | 0.00 | 81 | 1015.2 |
| 20260507122835 | 36 | 214 | 1.7 | 1.7 | 0.00 | 0.00 | 0.00 | 81 | 1015.3 |
| 20260507122331 | 36 | 0 | 0.9 | 1.7 | 0.00 | 0.00 | 0.00 | 80 | 1015.3 |
| 20260507121828 | 36 | 355 | 0.9 | 0.9 | 0.00 | 0.00 | 0.00 | 81 | 1014.9 |
| 20260507121323 | 35 | 58 | 2.6 | 3.5 | 0.00 | 0.00 | 0.00 | 81 | 1015.2 |
| 20260507120820 | 35 | 44 | 0.9 | 1.7 | 0.00 | 0.00 | 0.00 | 81 | 1015.3 |
| 20260507120316 | 35 | 79 | 2.6 | 2.6 | 0.00 | 0.00 | 0.00 | 80 | 1015.2 |
| 20260507115812 | 35 | 147 | 1.7 | 1.7 | 0.00 | 0.00 | 0.00 | 80 | 1015.2 |
| 20260507115308 | 34 | 17 | 0.9 | 0.9 | 0.00 | 0.00 | 0.00 | 81 | 1015.5 |
| 20260507114804 | 34 | 48 | 1.7 | 1.7 | 0.00 | 0.00 | 0.00 | 83 | 1015.5 |
| 20260507114301 | 33 | 24 | 1.7 | 1.7 | 0.00 | 0.00 | 0.00 | 84 | 1015.4 |
| 20260507113759 | 33 | 10 | 0.9 | 0.9 | 0.00 | 0.00 | 0.00 | 85 | 1015.3 |
| 20260507113255 | 33 | 344 | 0.0 | 0.0 | 0.00 | 0.00 | 0.00 | 87 | 1015.5 |
| 20260507112753 | 33 | 351 | 0.9 | 0.9 | 0.00 | 0.00 | 0.00 | 86 | 1015.6 |
| 20260507112250 | 33 | 340 | 0.9 | 0.9 | 0.00 | 0.00 | 0.00 | 86 | 1015.5 |
| 20260507111748 | 33 | 347 | 0.9 | 0.9 | 0.00 | 0.00 | 0.00 | 85 | 1015.4 |
| 20260507111244 | 32 | 337 | 0.0 | 0.0 | 0.00 | 0.00 | 0.00 | 87 | 1015.4 |
| 20260507110740 | 32 | 335 | 0.0 | 0.0 | 0.00 | 0.00 | 0.00 | 89 | 1015.4 |
| 20260507110237 | 32 | 331 | 0.0 | 0.0 | 0.00 | 0.00 | 0.00 | 90 | 1015.4 |
| 20260507105734 | 31 | 329 | 0.0 | 0.0 | 0.00 | 0.00 | 0.00 | 90 | 1015.4 |
| 20260507105230 | 31 | 339 | 0.0 | 0.0 | 0.00 | 0.00 | 0.00 | 90 | 1015.6 |
| 20260507104727 | 31 | 339 | 0.0 | 0.9 | 0.00 | 0.00 | 0.00 | 90 | 1015.5 |
| 20260507104224 | 31 | 345 | 0.0 | 0.9 | 0.00 | 0.00 | 0.00 | 90 | 1015.4 |
| 20260507103720 | 31 | 343 | 0.0 | 0.0 | 0.00 | 0.00 | 0.00 | 90 | 1015.6 |
| 20260507103216 | 31 | 344 | 0.0 | 0.0 | 0.00 | 0.00 | 0.00 | 89 | 1015.6 |
| 20260507102713 | 32 | 342 | 0.0 | 0.0 | 0.00 | 0.00 | 0.00 | 89 | 1015.5 |
| 20260507102209 | 32 | 337 | 0.0 | 0.0 | 0.00 | 0.00 | 0.00 | 88 | 1015.7 |
| 20260507101705 | 32 | 332 | 0.0 | 0.0 | 0.00 | 0.00 | 0.00 | 87 | 1015.8 |
| 20260507101201 | 32 | 347 | 0.9 | 0.9 | 0.00 | 0.00 | 0.00 | 86 | 1015.7 |
| 20260507100658 | 32 | 332 | 0.9 | 0.9 | 0.00 | 0.00 | 0.00 | 86 | 1015.8 |
| 20260507100157 | 31 | 332 | 0.0 | 0.0 | 0.00 | 0.00 | 0.00 | 86 | 1015.7 |
| 20260507095654 | 32 | 333 | 0.0 | 0.0 | 0.00 | 0.00 | 0.00 | 86 | 1015.6 |
| 20260507095151 | 32 | 335 | 0.0 | 0.0 | 0.00 | 0.00 | 0.00 | 85 | 1015.7 |
| 20260507094647 | 32 | 27 | 0.9 | 0.9 | 0.00 | 0.00 | 0.00 | 84 | 1015.5 |
| 20260507094144 | 32 | 339 | 0.0 | 0.0 | 0.00 | 0.00 | 0.00 | 84 | 1015.9 |
| 20260507093641 | 32 | 338 | 0.0 | 0.0 | 0.00 | 0.00 | 0.00 | 84 | 1015.9 |